Location: Unspecified
(49.2170°N, 0.0000°E)
Time: 16:26:30
(UTC+00:00)

Envisat - Pass Details

Date: 29 November 2020
Orbit: 764 x 766 km, 98.1° (Epoch: 20 January)

Event Time Altitude Azimuth Distance (km) Brightness Sun altitude
Rises 06:30:53 0° 10° (N) 3,247 6.1 -9.6°
Reaches altitude 10° 06:33:14 10° 7° (N) 2,316 5.3 -9.2°
Maximum altitude 06:38:13 58° 290° (WNW) 894 3.1 -8.5°
Drops below altitude 10° 06:43:11 10° 212° (SSW) 2,299 5.4 -7.7°
Sets 06:45:30 0° 208° (SSW) 3,220 6.2 -7.4°
